Time,TemperatureF,DewpointF,PressureIn,WindDirection,WindDirectionDegrees,WindSpeedMPH,WindSpeedGustMPH,Humidity,HourlyPrecipIn,Conditions,Clouds,dailyrainin,SoftwareType,DateUTC
2013-03-11 00:03:00,27.4,23.4,30.11,SE,135,0.7,2.2,85,0.00,,,0.00,WUHU216HW,2013-03-11 00:03:00,
2013-03-11 00:08:00,27.4,23.4,30.11,South,180,0.4,2.2,85,0.00,,,0.00,WUHU216HW,2013-03-11 00:08:00,
2013-03-11 00:13:00,27.4,23.4,30.11,SSE,158,0.9,1.1,85,0.00,,,0.00,WUHU216HW,2013-03-11 00:13:00,
2013-03-11 00:18:00,27.4,22.9,30.11,SSW,203,0.9,1.1,83,0.00,,,0.00,WUHU216HW,2013-03-11 00:18:00,
2013-03-11 00:23:00,27.4,22.9,30.11,SE,135,1.1,1.6,83,0.00,,,0.00,WUHU216HW,2013-03-11 00:23:00,
2013-03-11 00:28:00,27.2,22.7,30.11,ESE,113,0.7,1.6,83,0.00,,,0.00,WUHU216HW,2013-03-11 00:28:00,
2013-03-11 00:33:00,27.2,22.7,30.11,WSW,248,1.3,1.3,83,0.00,,,0.00,WUHU216HW,2013-03-11 00:33:00,
2013-03-11 00:38:00,27.0,22.5,30.11,North,0,0.7,1.3,83,0.00,,,0.00,WUHU216HW,2013-03-11 00:38:00,
2013-03-11 00:43:00,27.0,22.5,30.10,North,0,0.7,1.3,83,0.00,,,0.00,WUHU216HW,2013-03-11 00:43:00,
2013-03-11 00:48:00,27.2,22.3,30.11,ESE,113,0.9,1.3,82,0.00,,,0.00,WUHU216HW,2013-03-11 00:48:00,
2013-03-11 00:53:00,27.2,22.3,30.11,NW,315,0.7,0.9,82,0.00,,,0.00,WUHU216HW,2013-03-11 00:53:00,
2013-03-11 00:58:00,27.2,21.8,30.11,North,0,1.6,1.6,80,0.00,,,0.00,WUHU216HW,2013-03-11 00:58:00,
2013-03-11 01:03:00,27.0,21.6,30.11,ESE,113,1.1,1.6,80,0.00,,,0.00,WUHU216HW,2013-03-11 01:03:00,
2013-03-11 01:08:00,27.0,21.6,30.11,NNE,23,1.8,1.8,80,0.00,,,0.00,WUHU216HW,2013-03-11 01:08:00,
2013-03-11 01:13:00,27.0,21.6,30.11,West,270,1.6,1.8,80,0.00,,,0.00,WUHU216HW,2013-03-11 01:13:00,
2013-03-11 01:18:00,27.0,21.6,30.11,SE,135,1.1,1.8,80,0.00,,,0.00,WUHU216HW,2013-03-11 01:18:00,
2013-03-11 01:23:00,26.8,21.4,30.11,ENE,68,0.7,1.1,80,0.00,,,0.00,WUHU216HW,2013-03-11 01:23:00,
2013-03-11 01:28:00,26.8,21.7,30.10,WNW,293,0.7,1.1,81,0.00,,,0.00,WUHU216HW,2013-03-11 01:28:00,
2013-03-11 01:33:00,26.8,21.7,30.10,ESE,113,1.1,1.1,81,0.00,,,0.00,WUHU216HW,2013-03-11 01:33:00,
2013-03-11 01:38:00,27.0,21.9,30.10,SW,225,1.1,1.1,81,0.00,,,0.00,WUHU216HW,2013-03-11 01:38:00,
2013-03-11 01:43:00,27.0,21.9,30.10,East,90,1.6,2.2,81,0.00,,,0.00,WUHU216HW,2013-03-11 01:43:00,
2013-03-11 01:48:00,27.0,21.9,30.10,NNW,338,0.4,2.2,81,0.00,,,0.00,WUHU216HW,2013-03-11 01:48:00,
2013-03-11 01:53:00,27.0,21.9,30.10,WNW,293,0.4,0.4,81,0.00,,,0.00,WUHU216HW,2013-03-11 01:53:00,
2013-03-11 01:58:00,27.0,21.6,30.10,WNW,293,0.4,0.4,80,0.00,,,0.00,WUHU216HW,2013-03-11 01:58:00,
2013-03-11 02:03:00,26.8,21.4,30.10,East,90,1.6,1.6,80,0.00,,,0.00,WUHU216HW,2013-03-11 02:03:00,
2013-03-11 02:08:00,27.0,21.3,30.10,NW,315,1.3,1.6,79,0.00,,,0.00,WUHU216HW,2013-03-11 02:08:00,
2013-03-11 02:13:00,27.0,21.3,30.10,NW,315,1.3,1.8,79,0.00,,,0.00,WUHU216HW,2013-03-11 02:13:00,
2013-03-11 02:18:00,27.0,21.3,30.10,ENE,68,1.3,1.8,79,0.00,,,0.00,WUHU216HW,2013-03-11 02:18:00,
2013-03-11 02:23:00,26.8,21.4,30.11,NNW,338,1.8,1.8,80,0.00,,,0.00,WUHU216HW,2013-03-11 02:23:00,
2013-03-11 02:28:00,27.0,21.9,30.11,West,270,1.1,1.8,81,0.00,,,0.00,WUHU216HW,2013-03-11 02:28:00,
2013-03-11 02:33:00,27.0,21.9,30.10,SW,225,0.9,1.1,81,0.00,,,0.00,WUHU216HW,2013-03-11 02:33:00,
2013-03-11 02:38:00,26.8,21.7,30.10,ESE,113,0.4,1.1,81,0.00,,,0.00,WUHU216HW,2013-03-11 02:38:00,
2013-03-11 02:43:00,27.0,21.9,30.10,SE,135,0.4,0.9,81,0.00,,,0.00,WUHU216HW,2013-03-11 02:43:00,
2013-03-11 02:48:00,26.8,21.4,30.10,SE,135,1.8,1.8,80,0.00,,,0.00,WUHU216HW,2013-03-11 02:48:00,
2013-03-11 02:53:00,26.8,21.4,30.11,East,90,0.4,1.8,80,0.00,,,0.00,WUHU216HW,2013-03-11 02:53:00,
2013-03-11 02:58:00,26.6,21.2,30.11,SSE,158,0.9,1.8,80,0.00,,,0.00,WUHU216HW,2013-03-11 02:58:00,
2013-03-11 03:03:00,26.6,21.2,30.11,South,180,0.4,1.8,80,0.00,,,0.00,WUHU216HW,2013-03-11 03:03:00,
2013-03-11 03:08:00,26.6,21.2,30.11,South,180,0.7,1.1,80,0.00,,,0.00,WUHU216HW,2013-03-11 03:08:00,
2013-03-11 03:13:00,26.8,21.7,30.11,North,0,1.1,1.1,81,0.00,,,0.00,WUHU216HW,2013-03-11 03:13:00,
2013-03-11 03:18:00,26.8,21.7,30.10,NW,315,0.9,2.7,81,0.00,,,0.00,WUHU216HW,2013-03-11 03:18:00,
2013-03-11 03:23:00,26.8,21.7,30.10,WNW,293,1.6,2.7,81,0.00,,,0.00,WUHU216HW,2013-03-11 03:23:00,
2013-03-11 03:28:00,26.8,21.7,30.10,East,90,2.5,2.5,81,0.00,,,0.00,WUHU216HW,2013-03-11 03:28:00,
2013-03-11 03:33:00,26.8,21.7,30.10,NNW,338,0.9,2.5,81,0.00,,,0.00,WUHU216HW,2013-03-11 03:33:00,
2013-03-11 03:38:00,26.8,21.7,30.10,North,0,0.9,1.1,81,0.00,,,0.00,WUHU216HW,2013-03-11 03:38:00,
2013-03-11 03:43:00,27.0,21.6,30.09,NNW,338,0.4,1.1,80,0.00,,,0.00,WUHU216HW,2013-03-11 03:43:00,
2013-03-11 03:48:00,27.0,21.3,30.10,NW,315,1.1,1.1,79,0.00,,,0.00,WUHU216HW,2013-03-11 03:48:00,
2013-03-11 03:53:00,27.2,21.5,30.10,NNW,338,0.4,1.1,79,0.00,,,0.00,WUHU216HW,2013-03-11 03:53:00,
2013-03-11 03:58:00,27.0,21.3,30.10,SE,135,0.2,1.8,79,0.00,,,0.00,WUHU216HW,2013-03-11 03:58:00,
2013-03-11 04:03:00,27.2,21.5,30.10,NW,315,0.9,1.8,79,0.00,,,0.00,WUHU216HW,2013-03-11 04:03:00,
2013-03-11 04:08:00,27.4,21.3,30.10,West,270,0.7,1.6,78,0.00,,,0.00,WUHU216HW,2013-03-11 04:08:00,
2013-03-11 04:13:00,27.0,21.0,30.10,NNW,338,0.9,1.6,78,0.00,,,0.00,WUHU216HW,2013-03-11 04:13:00,
2013-03-11 04:18:00,27.0,21.0,30.11,NNW,338,0.7,1.8,78,0.00,,,0.00,WUHU216HW,2013-03-11 04:18:00,
2013-03-11 04:23:00,27.0,21.0,30.10,WSW,248,0.9,1.8,78,0.00,,,0.00,WUHU216HW,2013-03-11 04:23:00,
2013-03-11 04:28:00,27.0,20.7,30.11,WNW,293,0.4,1.8,77,0.00,,,0.00,WUHU216HW,2013-03-11 04:28:00,
2013-03-11 04:33:00,26.8,20.2,30.10,NW,315,1.1,1.8,76,0.00,,,0.00,WUHU216HW,2013-03-11 04:33:00,
2013-03-11 04:38:00,26.8,20.2,30.10,WSW,248,0.4,1.8,76,0.00,,,0.00,WUHU216HW,2013-03-11 04:38:00,
2013-03-11 04:43:00,26.6,20.0,30.10,North,0,1.3,1.8,76,0.00,,,0.00,WUHU216HW,2013-03-11 04:43:00,
2013-03-11 04:48:00,26.5,19.9,30.10,SSE,158,1.1,1.3,76,0.00,,,0.00,WUHU216HW,2013-03-11 04:48:00,
2013-03-11 04:53:00,26.3,19.7,30.10,North,0,1.1,1.3,76,0.00,,,0.00,WUHU216HW,2013-03-11 04:53:00,
2013-03-11 04:58:00,26.3,19.7,30.10,NW,315,0.9,1.3,76,0.00,,,0.00,WUHU216HW,2013-03-11 04:58:00,
2013-03-11 05:03:00,26.1,19.5,30.10,WNW,293,0.4,1.3,76,0.00,,,0.00,WUHU216HW,2013-03-11 05:03:00,
2013-03-11 05:08:00,25.9,19.4,30.10,WNW,293,1.1,1.8,76,0.00,,,0.00,WUHU216HW,2013-03-11 05:08:00,
2013-03-11 05:13:00,25.9,19.4,30.10,NW,315,0.9,1.8,76,0.00,,,0.00,WUHU216HW,2013-03-11 05:13:00,
2013-03-11 05:18:00,25.7,19.5,30.10,NW,315,1.6,1.6,77,0.00,,,0.00,WUHU216HW,2013-03-11 05:18:00,
2013-03-11 05:23:00,25.7,19.5,30.10,WNW,293,1.8,1.8,77,0.00,,,0.00,WUHU216HW,2013-03-11 05:23:00,
2013-03-11 05:28:00,25.7,19.5,30.10,WNW,293,1.1,1.8,77,0.00,,,0.00,WUHU216HW,2013-03-11 05:28:00,
2013-03-11 05:33:00,25.9,19.6,30.11,NW,315,1.1,1.8,77,0.00,,,0.00,WUHU216HW,2013-03-11 05:33:00,
2013-03-11 05:38:00,25.9,19.6,30.11,NNW,338,2.0,2.0,77,0.00,,,0.00,WUHU216HW,2013-03-11 05:38:00,
2013-03-11 05:43:00,25.9,19.6,30.10,ENE,68,1.6,2.0,77,0.00,,,0.00,WUHU216HW,2013-03-11 05:43:00,
2013-03-11 05:48:00,26.1,19.8,30.11,WSW,248,1.1,2.2,77,0.00,,,0.00,WUHU216HW,2013-03-11 05:48:00,
2013-03-11 05:53:00,26.3,20.0,30.10,WNW,293,2.5,2.5,77,0.00,,,0.00,WUHU216HW,2013-03-11 05:53:00,
2013-03-11 05:58:00,26.5,19.9,30.10,West,270,1.6,2.5,76,0.00,,,0.00,WUHU216HW,2013-03-11 05:58:00,
2013-03-11 06:03:00,26.6,19.7,30.10,NW,315,0.4,2.5,75,0.00,,,0.00,WUHU216HW,2013-03-11 06:03:00,
2013-03-11 06:08:00,26.8,19.9,30.10,NW,315,0.4,1.6,75,0.00,,,0.00,WUHU216HW,2013-03-11 06:08:00,
2013-03-11 06:13:00,26.8,19.9,30.10,WNW,293,0.4,1.8,75,0.00,,,0.00,WUHU216HW,2013-03-11 06:13:00,
2013-03-11 06:18:00,26.8,19.6,30.10,ESE,113,1.1,1.8,74,0.00,,,0.00,WUHU216HW,2013-03-11 06:18:00,
2013-03-11 06:23:00,26.6,19.5,30.11,ENE,68,0.9,1.6,74,0.00,,,0.00,WUHU216HW,2013-03-11 06:23:00,
2013-03-11 06:28:00,26.6,19.5,30.11,NNE,23,0.9,1.6,74,0.00,,,0.00,WUHU216HW,2013-03-11 06:28:00,
2013-03-11 06:33:00,26.5,19.3,30.10,NNW,338,1.3,1.3,74,0.00,,,0.00,WUHU216HW,2013-03-11 06:33:00,
2013-03-11 06:38:00,26.3,19.1,30.10,WNW,293,1.1,1.8,74,0.00,,,0.00,WUHU216HW,2013-03-11 06:38:00,
2013-03-11 06:44:00,26.3,19.1,30.10,NNW,338,0.9,1.8,74,0.00,,,0.00,WUHU216HW,2013-03-11 06:44:00,
2013-03-11 06:49:00,26.3,19.4,30.10,ENE,68,1.1,1.6,75,0.00,,,0.00,WUHU216HW,2013-03-11 06:49:00,
2013-03-11 06:54:00,26.3,19.4,30.11,WNW,293,0.9,1.1,75,0.00,,,0.00,WUHU216HW,2013-03-11 06:54:00,
2013-03-11 06:59:00,26.3,19.4,30.11,WSW,248,1.6,1.6,75,0.00,,,0.00,WUHU216HW,2013-03-11 06:59:00,
2013-03-11 07:04:00,26.3,19.4,30.11,WNW,293,0.4,1.6,75,0.00,,,0.00,WUHU216HW,2013-03-11 07:04:00,
2013-03-11 07:09:00,26.3,19.1,30.11,West,270,0.7,1.6,74,0.00,,,0.00,WUHU216HW,2013-03-11 07:09:00,
2013-03-11 07:14:00,26.3,19.1,30.11,NE,45,1.6,1.6,74,0.00,,,0.00,WUHU216HW,2013-03-11 07:14:00,
2013-03-11 07:19:00,26.6,19.5,30.11,WNW,293,0.9,1.6,74,0.00,,,0.00,WUHU216HW,2013-03-11 07:19:00,
2013-03-11 07:24:00,26.6,19.5,30.11,NW,315,0.4,1.6,74,0.00,,,0.00,WUHU216HW,2013-03-11 07:24:00,
2013-03-11 07:29:00,26.6,19.5,30.11,NNW,338,0.9,1.1,74,0.00,,,0.00,WUHU216HW,2013-03-11 07:29:00,
2013-03-11 07:34:00,26.6,19.5,30.11,West,270,0.7,1.8,74,0.00,,,0.00,WUHU216HW,2013-03-11 07:34:00,
2013-03-11 07:39:00,26.8,19.6,30.12,SE,135,0.4,1.8,74,0.00,,,0.00,WUHU216HW,2013-03-11 07:39:00,
2013-03-11 07:44:00,26.6,19.1,30.12,WSW,248,1.1,3.4,73,0.00,,,0.00,WUHU216HW,2013-03-11 07:44:00,
2013-03-11 07:49:00,26.8,19.0,30.12,SSW,203,1.8,3.4,72,0.00,,,0.00,WUHU216HW,2013-03-11 07:49:00,
2013-03-11 07:54:00,26.8,19.0,30.12,NW,315,1.1,1.8,72,0.00,,,0.00,WUHU216HW,2013-03-11 07:54:00,
2013-03-11 07:59:00,26.6,18.8,30.12,WNW,293,0.9,2.2,72,0.00,,,0.00,WUHU216HW,2013-03-11 07:59:00,
2013-03-11 08:04:00,26.6,18.8,30.12,WNW,293,0.4,2.2,72,0.00,,,0.00,WUHU216HW,2013-03-11 08:04:00,
2013-03-11 08:09:00,27.0,19.2,30.12,ESE,113,1.1,1.1,72,0.00,,,0.00,WUHU216HW,2013-03-11 08:09:00,
2013-03-11 08:14:00,28.6,20.4,30.12,NW,315,1.1,1.3,71,0.00,,,0.00,WUHU216HW,2013-03-11 08:14:00,
2013-03-11 08:19:00,29.5,21.0,30.12,NNE,23,1.8,1.8,70,0.00,,,0.00,WUHU216HW,2013-03-11 08:19:00,
2013-03-11 08:24:00,29.9,20.5,30.12,WNW,293,1.8,1.8,68,0.00,,,0.00,WUHU216HW,2013-03-11 08:24:00,
2013-03-11 08:29:00,30.2,20.5,30.12,NNE,23,1.6,2.0,67,0.00,,,0.00,WUHU216HW,2013-03-11 08:29:00,
2013-03-11 08:34:00,30.6,20.5,30.12,SSE,158,1.8,2.0,66,0.00,,,0.00,WUHU216HW,2013-03-11 08:34:00,
2013-03-11 08:39:00,31.0,20.9,30.12,NNW,338,1.6,3.4,66,0.00,,,0.00,WUHU216HW,2013-03-11 08:39:00,
2013-03-11 08:44:00,31.3,21.2,30.12,WNW,293,2.0,3.4,66,0.00,,,0.00,WUHU216HW,2013-03-11 08:44:00,
2013-03-11 08:49:00,31.3,21.2,30.12,NNW,338,1.1,2.0,66,0.00,,,0.00,WUHU216HW,2013-03-11 08:49:00,
2013-03-11 08:54:00,31.9,21.8,30.12,NE,45,2.0,2.0,66,0.00,,,0.00,WUHU216HW,2013-03-11 08:54:00,
2013-03-11 08:59:00,31.9,21.4,30.12,WNW,293,0.9,2.0,65,0.00,,,0.00,WUHU216HW,2013-03-11 08:59:00,
2013-03-11 09:04:00,31.9,21.4,30.12,WNW,293,0.9,2.0,65,0.00,,,0.00,WUHU216HW,2013-03-11 09:04:00,
2013-03-11 09:09:00,31.9,21.4,30.12,WNW,293,0.9,0.9,65,0.00,,,0.00,WUHU216HW,2013-03-11 09:09:00,
2013-03-11 10:05:00,30.6,20.5,30.13,NNW,338,2.2,2.2,66,0.00,,,0.00,WUHU216HW,2013-03-11 10:05:00,
2013-03-11 11:05:00,31.5,21.1,30.13,West,270,1.1,1.1,65,0.01,,,0.00,WUHU216HW,2013-03-11 11:05:00,
2013-03-11 12:05:00,33.3,22.1,30.12,ENE,68,4.0,4.0,63,0.01,,,0.01,WUHU216HW,2013-03-11 12:05:00,
2013-03-11 13:05:00,34.4,23.0,30.13,ESE,113,2.0,2.0,63,0.01,,,0.03,WUHU216HW,2013-03-11 13:05:00,
2013-03-11 13:10:00,34.7,23.4,30.13,West,270,1.6,2.0,63,0.01,,,0.03,WUHU216HW,2013-03-11 13:10:00,
2013-03-11 13:15:00,34.9,23.2,30.13,SE,135,2.5,2.5,62,0.01,,,0.03,WUHU216HW,2013-03-11 13:15:00,
2013-03-11 13:20:00,35.1,23.4,30.13,ESE,113,2.0,2.7,62,0.01,,,0.03,WUHU216HW,2013-03-11 13:20:00,
2013-03-11 13:25:00,34.9,23.2,30.12,North,0,3.6,3.6,62,0.01,,,0.03,WUHU216HW,2013-03-11 13:25:00,
2013-03-11 13:30:00,34.9,23.6,30.12,ENE,68,2.5,3.6,63,0.01,,,0.03,WUHU216HW,2013-03-11 13:30:00,
2013-03-11 13:35:00,34.9,23.6,30.12,East,90,4.3,4.3,63,0.01,,,0.03,WUHU216HW,2013-03-11 13:35:00,
2013-03-11 13:40:00,35.3,23.9,30.12,NNW,338,3.1,4.3,63,0.01,,,0.03,WUHU216HW,2013-03-11 13:40:00,
2013-03-11 13:45:00,35.3,23.9,30.12,NNW,338,3.1,4.3,63,0.01,,,0.03,WUHU216HW,2013-03-11 13:45:00,
2013-03-11 14:05:00,35.6,25.0,30.12,North,0,1.8,1.8,65,0.00,,,0.03,WUHU216HW,2013-03-11 14:05:00,
2013-03-11 15:05:00,36.0,23.6,30.12,ENE,68,4.0,4.0,60,0.00,,,0.03,WUHU216HW,2013-03-11 15:05:00,
2013-03-11 16:05:00,34.9,22.1,30.11,SE,135,2.5,2.5,59,0.00,,,0.03,WUHU216HW,2013-03-11 16:05:00,
2013-03-11 17:05:00,34.0,20.7,30.12,East,90,2.9,2.9,58,0.00,,,0.03,WUHU216HW,2013-03-11 17:05:00,
2013-03-11 17:10:00,33.7,20.0,30.12,North,0,0.4,2.9,57,0.00,,,0.03,WUHU216HW,2013-03-11 17:10:00,
2013-03-11 17:15:00,33.7,20.8,30.12,North,0,1.1,1.1,59,0.00,,,0.03,WUHU216HW,2013-03-11 17:15:00,
2013-03-11 17:20:00,33.5,20.3,30.12,East,90,0.9,1.1,58,0.00,,,0.03,WUHU216HW,2013-03-11 17:20:00,
2013-03-11 17:25:00,33.3,20.5,30.12,NNW,338,0.9,1.1,59,0.00,,,0.03,WUHU216HW,2013-03-11 17:25:00,
2013-03-11 17:30:00,33.1,19.9,30.12,ESE,113,1.3,1.3,58,0.00,,,0.03,WUHU216HW,2013-03-11 17:30:00,
2013-03-11 17:35:00,32.9,20.6,30.12,East,90,1.1,1.3,60,0.00,,,0.03,WUHU216HW,2013-03-11 17:35:00,
2013-03-11 17:40:00,32.8,20.8,30.12,East,90,0.7,1.3,61,0.00,,,0.03,WUHU216HW,2013-03-11 17:40:00,
2013-03-11 17:45:00,32.6,20.6,30.12,ENE,68,0.4,0.7,61,0.00,,,0.03,WUHU216HW,2013-03-11 17:45:00,
2013-03-11 17:50:00,32.4,20.9,30.13,ENE,68,0.7,0.7,62,0.00,,,0.03,WUHU216HW,2013-03-11 17:50:00,
2013-03-11 17:55:00,32.4,20.9,30.13,SE,135,0.4,0.7,62,0.00,,,0.03,WUHU216HW,2013-03-11 17:55:00,
2013-03-11 18:00:00,32.0,20.9,30.13,SE,135,0.0,1.3,63,0.00,,,0.03,WUHU216HW,2013-03-11 18:00:00,
2013-03-11 18:05:00,31.7,20.5,30.13,SE,135,0.2,1.3,63,0.00,,,0.03,WUHU216HW,2013-03-11 18:05:00,
2013-03-11 18:10:00,31.3,20.5,30.13,ESE,113,0.4,0.4,64,0.00,,,0.03,WUHU216HW,2013-03-11 18:10:00,
2013-03-11 18:15:00,31.1,20.3,30.13,NNE,23,0.2,0.4,64,0.00,,,0.03,WUHU216HW,2013-03-11 18:15:00,
2013-03-11 18:20:00,31.0,20.5,30.13,East,90,0.0,0.4,65,0.00,,,0.03,WUHU216HW,2013-03-11 18:20:00,
2013-03-11 18:25:00,30.8,20.3,30.13,SE,135,0.0,0.4,65,0.00,,,0.03,WUHU216HW,2013-03-11 18:25:00,
2013-03-11 18:30:00,30.6,20.5,30.13,SE,135,0.0,0.0,66,0.00,,,0.03,WUHU216HW,2013-03-11 18:30:00,
2013-03-11 18:35:00,30.2,20.2,30.13,SE,135,0.4,0.4,66,0.00,,,0.03,WUHU216HW,2013-03-11 18:35:00,
2013-03-11 18:40:00,30.1,20.0,30.13,SSE,158,0.2,0.4,66,0.00,,,0.03,WUHU216HW,2013-03-11 18:40:00,
2013-03-11 18:45:00,29.9,19.8,30.13,South,180,0.7,0.7,66,0.00,,,0.03,WUHU216HW,2013-03-11 18:45:00,
2013-03-11 18:50:00,30.1,20.0,30.13,East,90,0.2,0.7,66,0.00,,,0.03,WUHU216HW,2013-03-11 18:50:00,
2013-03-11 18:55:00,29.9,19.8,30.13,ESE,113,0.9,0.9,66,0.00,,,0.03,WUHU216HW,2013-03-11 18:55:00,
2013-03-11 19:00:00,29.9,19.8,30.13,ESE,113,0.0,0.9,66,0.00,,,0.03,WUHU216HW,2013-03-11 19:00:00,
2013-03-11 19:05:00,29.9,19.8,30.13,ESE,113,1.6,1.6,66,0.00,,,0.03,WUHU216HW,2013-03-11 19:05:00,
2013-03-11 19:10:00,30.1,20.0,30.13,ESE,113,0.4,1.6,66,0.00,,,0.03,WUHU216HW,2013-03-11 19:10:00,
2013-03-11 19:15:00,29.9,19.8,30.14,SE,135,0.7,1.6,66,0.00,,,0.03,WUHU216HW,2013-03-11 19:15:00,
2013-03-11 19:20:00,29.9,19.8,30.14,SE,135,0.4,0.7,66,0.00,,,0.03,WUHU216HW,2013-03-11 19:20:00,
2013-03-11 19:25:00,29.7,19.7,30.14,SSE,158,0.2,0.4,66,0.00,,,0.03,WUHU216HW,2013-03-11 19:25:00,
2013-03-11 19:30:00,29.7,19.7,30.14,North,0,0.4,0.7,66,0.00,,,0.03,WUHU216HW,2013-03-11 19:30:00,
2013-03-11 19:35:00,29.7,19.7,30.14,SSE,158,0.4,0.7,66,0.00,,,0.03,WUHU216HW,2013-03-11 19:35:00,
2013-03-11 19:40:00,29.7,19.7,30.14,SSE,158,0.9,0.9,66,0.00,,,0.03,WUHU216HW,2013-03-11 19:40:00,
2013-03-11 19:45:00,29.5,19.9,30.14,East,90,0.7,0.9,67,0.00,,,0.03,WUHU216HW,2013-03-11 19:45:00,
2013-03-11 19:50:00,29.5,19.9,30.14,SE,135,0.9,0.9,67,0.00,,,0.03,WUHU216HW,2013-03-11 19:50:00,
2013-03-11 19:55:00,29.5,19.9,30.14,SE,135,0.4,0.9,67,0.00,,,0.03,WUHU216HW,2013-03-11 19:55:00,
2013-03-11 20:00:00,29.3,19.7,30.15,SE,135,0.2,0.4,67,0.00,,,0.03,WUHU216HW,2013-03-11 20:00:00,
2013-03-11 20:05:00,29.3,19.7,30.15,SE,135,0.2,0.4,67,0.00,,,0.03,WUHU216HW,2013-03-11 20:05:00,
2013-03-11 20:10:00,29.3,19.4,30.14,WSW,248,0.4,0.4,66,0.00,,,0.03,WUHU216HW,2013-03-11 20:10:00,
2013-03-11 20:15:00,29.5,19.5,30.14,WSW,248,0.0,0.4,66,0.00,,,0.03,WUHU216HW,2013-03-11 20:15:00,
2013-03-11 20:20:00,29.7,19.7,30.15,ESE,113,0.9,0.9,66,0.00,,,0.03,WUHU216HW,2013-03-11 20:20:00,
2013-03-11 20:25:00,29.7,19.7,30.15,East,90,0.4,0.9,66,0.00,,,0.03,WUHU216HW,2013-03-11 20:25:00,
2013-03-11 20:30:00,29.7,19.7,30.14,NNW,338,0.4,0.9,66,0.00,,,0.03,WUHU216HW,2013-03-11 20:30:00,
2013-03-11 20:35:00,29.7,19.7,30.14,SSW,203,0.7,0.7,66,0.00,,,0.03,WUHU216HW,2013-03-11 20:35:00,
2013-03-11 20:40:00,29.7,19.7,30.14,South,180,0.2,0.7,66,0.00,,,0.03,WUHU216HW,2013-03-11 20:40:00,
2013-03-11 20:45:00,29.7,19.7,30.14,SE,135,0.9,0.9,66,0.00,,,0.03,WUHU216HW,2013-03-11 20:45:00,
2013-03-11 20:50:00,29.5,19.5,30.14,North,0,0.0,0.9,66,0.00,,,0.03,WUHU216HW,2013-03-11 20:50:00,
2013-03-11 20:55:00,29.5,19.5,30.14,NW,315,0.2,0.9,66,0.00,,,0.03,WUHU216HW,2013-03-11 20:55:00,
2013-03-11 21:00:00,29.5,19.5,30.15,SW,225,0.4,0.4,66,0.00,,,0.03,WUHU216HW,2013-03-11 21:00:00,
2013-03-11 21:05:00,29.5,19.5,30.14,SW,225,0.2,0.4,66,0.00,,,0.03,WUHU216HW,2013-03-11 21:05:00,
2013-03-11 21:10:00,29.5,19.5,30.15,WNW,293,0.2,0.7,66,0.00,,,0.03,WUHU216HW,2013-03-11 21:10:00,
2013-03-11 21:15:00,29.3,19.4,30.15,South,180,0.2,0.7,66,0.00,,,0.03,WUHU216HW,2013-03-11 21:15:00,
2013-03-11 21:20:00,29.2,19.5,30.15,WNW,293,0.4,0.7,67,0.00,,,0.03,WUHU216HW,2013-03-11 21:20:00,
2013-03-11 21:25:00,29.2,19.5,30.15,NW,315,0.4,1.1,67,0.00,,,0.03,WUHU216HW,2013-03-11 21:25:00,
2013-03-11 21:30:00,29.3,19.4,30.14,SSW,203,0.4,1.1,66,0.00,,,0.03,WUHU216HW,2013-03-11 21:30:00,
2013-03-11 21:35:00,29.5,19.5,30.15,South,180,0.0,0.9,66,0.00,,,0.03,WUHU216HW,2013-03-11 21:35:00,
2013-03-11 21:40:00,29.5,19.5,30.14,WSW,248,0.2,0.4,66,0.00,,,0.03,WUHU216HW,2013-03-11 21:40:00,
2013-03-11 21:45:00,29.5,19.5,30.15,WNW,293,0.4,0.4,66,0.00,,,0.03,WUHU216HW,2013-03-11 21:45:00,
2013-03-11 21:50:00,29.5,19.5,30.15,NW,315,1.3,1.3,66,0.00,,,0.03,WUHU216HW,2013-03-11 21:50:00,
2013-03-11 21:55:00,29.2,19.5,30.15,NNW,338,0.4,1.3,67,0.00,,,0.03,WUHU216HW,2013-03-11 21:55:00,
2013-03-11 22:00:00,29.2,19.5,30.14,WNW,293,0.4,1.3,67,0.00,,,0.03,WUHU216HW,2013-03-11 22:00:00,
2013-03-11 22:05:00,29.0,19.4,30.15,WNW,293,0.0,0.4,67,0.00,,,0.03,WUHU216HW,2013-03-11 22:05:00,
2013-03-11 22:10:00,28.8,19.6,30.14,NNW,338,0.4,0.4,68,0.00,,,0.03,WUHU216HW,2013-03-11 22:10:00,
2013-03-11 22:15:00,29.0,20.1,30.14,North,0,0.4,0.4,69,0.00,,,0.03,WUHU216HW,2013-03-11 22:15:00,
2013-03-11 22:20:00,29.0,19.7,30.14,NW,315,0.4,0.7,68,0.00,,,0.03,WUHU216HW,2013-03-11 22:20:00,
2013-03-11 22:25:00,29.0,20.1,30.14,WNW,293,0.4,0.7,69,0.00,,,0.03,WUHU216HW,2013-03-11 22:25:00,
2013-03-11 22:30:00,28.6,19.8,30.14,WNW,293,0.2,0.4,69,0.00,,,0.03,WUHU216HW,2013-03-11 22:30:00,
2013-03-11 22:35:00,28.6,19.8,30.14,WNW,293,0.4,0.4,69,0.00,,,0.03,WUHU216HW,2013-03-11 22:35:00,
2013-03-11 22:40:00,28.6,19.8,30.14,WNW,293,0.0,0.4,69,0.00,,,0.03,WUHU216HW,2013-03-11 22:40:00,
2013-03-11 22:45:00,28.4,19.6,30.14,West,270,0.4,0.7,69,0.00,,,0.03,WUHU216HW,2013-03-11 22:45:00,
2013-03-11 22:50:00,28.4,19.6,30.14,West,270,0.2,0.7,69,0.00,,,0.03,WUHU216HW,2013-03-11 22:50:00,
2013-03-11 22:55:00,28.3,19.8,30.14,West,270,0.0,0.4,70,0.00,,,0.03,WUHU216HW,2013-03-11 22:55:00,
2013-03-11 23:00:00,28.3,19.8,30.15,West,270,0.0,0.4,70,0.00,,,0.03,WUHU216HW,2013-03-11 23:00:00,
2013-03-11 23:05:00,28.1,19.6,30.14,West,270,0.4,0.4,70,0.00,,,0.03,WUHU216HW,2013-03-11 23:05:00,
2013-03-11 23:10:00,27.7,19.3,30.14,West,270,0.0,0.4,70,0.00,,,0.03,WUHU216HW,2013-03-11 23:10:00,
2013-03-11 23:15:00,27.7,19.3,30.14,North,0,0.4,0.4,70,0.00,,,0.03,WUHU216HW,2013-03-11 23:15:00,
2013-03-11 23:20:00,27.9,19.4,30.14,NNW,338,0.7,0.9,70,0.00,,,0.03,WUHU216HW,2013-03-11 23:20:00,
2013-03-11 23:25:00,28.1,19.6,30.14,NW,315,0.7,1.1,70,0.00,,,0.03,WUHU216HW,2013-03-11 23:25:00,
2013-03-11 23:30:00,28.1,19.6,30.14,NNW,338,0.4,1.1,70,0.00,,,0.03,WUHU216HW,2013-03-11 23:30:00,
2013-03-11 23:35:00,27.9,19.7,30.13,NNW,338,0.4,0.9,71,0.00,,,0.03,WUHU216HW,2013-03-11 23:35:00,
2013-03-11 23:40:00,27.9,19.7,30.13,NW,315,0.9,0.9,71,0.00,,,0.03,WUHU216HW,2013-03-11 23:40:00,
2013-03-11 23:45:00,28.1,19.6,30.13,NW,315,0.4,0.9,70,0.00,,,0.03,WUHU216HW,2013-03-11 23:45:00,
2013-03-11 23:50:00,28.1,19.6,30.13,West,270,0.4,0.9,70,0.00,,,0.03,WUHU216HW,2013-03-11 23:50:00,
2013-03-11 23:55:00,28.1,19.6,30.13,West,270,0.2,0.4,70,0.00,,,0.03,WUHU216HW,2013-03-11 23:55:00,